[[{"header":{"parameterUnit":"m.s-1","parameterCategory":1,"la1":30.2991,"la2":30.254,"lo1":-89.0895,"lo2":-89.0444,"dy":0.0017,"dx":0.0017,"nx":28,"ny":28,"refTime":"2024-04-15T09:00:00:Z","depth":0,"parameterNumber":2,"parameterNumberName":"U-component_of_WINDS"},"data":[0,0,0,0,0,0,0,0,0,0,0,0,0,0,0,0,0,0,0,0,0,0,0,0,0,0,0,0,0,0,0,0,0,0,0,0,0,0,0,0,0,0,0,0,0,0,0,0,0,0,0,0,0,0,0,0,0,0,-3.6826,-3.6827,0,-3.6899,-3.69,-3.6901,-3.6869,-3.6867,-3.6866,-3.6864,-3.6939,-3.6942,-3.6946,0,0,0,0,0,0,0,0,0,0,0,0,0,-3.6659,-3.6662,-3.6826,-3.6827,-3.6828,-3.6899,-3.69,-3.6901,-3.6869,-3.6867,-3.6865,-3.6863,-3.6937,-3.6942,-3.6946,0,0,0,0,0,0,0,0,0,0,0,0,0,-3.6732,-3.6663,-3.6826,-3.6821,-3.6821,-3.6899,-3.69,-3.6901,-3.687,-3.6867,-3.6865,-3.6862,-3.6936,-3.6941,-3.6947,-3.7034,0,0,-3.6963,-3.6966,0,0,0,0,0,0,0,0,-3.6728,-3.6738,-3.682,-3.6821,-3.6822,-3.6872,-3.6869,-3.6946,-3.6871,-3.6851,-3.6864,-3.6861,-3.6919,-3.6925,-3.6945,-3.7038,-3.7041,-3.6964,-3.6967,-3.697,-3.6971,0,0,0,0,0,0,0,-3.6723,-3.6735,-3.6855,-3.6822,-3.6822,-3.6815,-3.6822,-3.6883,-3.6899,-3.6853,-3.6851,-3.686,-3.6918,-3.694,-3.6947,-3.7042,-3.6964,-3.6969,-3.6972,-3.6974,-3.721,-3.7213,0,0,0,0,0,0,-3.6718,-3.6731,-3.6853,-3.6857,-3.6767,-3.682,-3.6828,-3.6859,-3.6898,-3.6902,-3.6862,-3.6858,-3.6932,-3.694,-3.6949,-3.7054,-3.697,-3.6975,-3.6978,-3.7207,-3.7211,-3.7214,0,0,0,0,0,0,-3.6714,-3.6729,-3.685,-3.6793,-3.6808,-3.6826,-3.686,-3.6862,-3.6883,-3.6905,-3.6908,-3.6881,-3.693,-3.6941,-3.7013,-3.7056,-3.6977,-3.6982,-3.7204,-3.7208,-3.7212,-3.7264,0,0,0,0,0,0,-3.671,-3.6728,-3.6761,-3.6794,-3.6811,-3.6913,-3.6863,-3.6865,-3.6892,-3.6888,-3.6924,-3.6927,-3.6929,-3.7005,-3.7019,-3.7062,-3.6986,-3.72,-3.7206,-3.7211,-3.7259,-3.727,-3.7279,0,0,0,0,0,-3.6704,-3.6772,-3.6763,-3.6778,-3.6853,-3.6915,-3.6925,-3.6925,-3.6896,-3.693,-3.6944,-3.6926,-3.705,-3.7013,-3.7028,-3.7073,-3.7197,-3.7204,-3.7211,-3.7254,-3.7268,-3.7279,0,0,0,0,0,0,-3.6743,-3.6777,-3.6766,-3.6848,-3.6879,-3.691,-3.6952,-3.694,-3.698,-3.6974,-3.6973,-3.6981,-3.7056,-3.7072,-3.7031,-3.716,-3.7119,-3.7129,-3.7147,-3.716,-3.717,-3.7164,-3.6991,0,0,0,0,0,-3.6762,-3.6809,-3.6836,-3.6905,-3.6921,-3.6934,-3.6961,-3.6959,-3.6991,-3.7004,-3.7024,-3.7056,-3.7102,-3.7132,-3.7175,-3.7261,-3.7269,-3.73,-3.7311,-3.7319,-3.7327,-3.7374,-3.7388,-3.7236,-3.7236,-3.7236,0,0,-3.68,-3.6824,-3.6854,-3.6914,-3.6938,-3.6987,-3.6945,-3.6999,-3.7036,-3.7012,-3.7081,-3.7097,-3.7133,-3.7212,-3.7248,-3.7228,-3.7371,-3.7328,-3.7334,-3.7338,-3.7382,-3.7397,-3.741,-3.7241,-3.724,-3.7239,0,0,-3.6894,-3.6917,-3.6978,-3.7003,-3.7039,-3.7048,-3.7062,-3.7095,-3.7105,-3.7174,-3.7158,-3.7202,-3.7281,-3.7307,-3.733,-3.7436,-3.7421,-3.7451,-3.7504,-3.755,-3.7562,-3.7572,-3.761,-3.7623,-3.7459,-3.7459,-3.7459,0,-3.6937,-3.701,-3.701,-3.7066,-3.7093,-3.7074,-3.7136,-3.716,-3.7209,-3.7228,-3.7205,-3.7304,-3.7327,-3.7412,-3.7438,-3.7458,-3.7475,-3.7446,-3.756,-3.7571,-3.758,-3.7616,-3.763,-3.7462,-3.7462,-3.7462,-3.7461,0,-3.7061,-3.7112,-3.7156,-3.7204,-3.7237,-3.7295,-3.7304,-3.7336,-3.7332,-3.7343,-3.7414,-3.7441,-3.749,-3.751,-3.7506,-3.7595,-3.7581,-3.756,-3.7517,-3.7598,-3.7632,-3.7645,-3.7467,-3.7466,-3.7465,-3.7464,0,0,-3.7181,-3.7229,-3.7245,-3.7267,-3.7307,-3.7346,-3.7404,-3.7452,-3.748,-3.7515,-3.7563,-3.7631,-3.7611,-3.7638,-3.7637,-3.7677,-3.7759,-3.765,-3.7651,-3.7669,-3.7859,-3.7874,-3.789,-3.775,-3.7752,-3.7755,-3.7855,0,-3.7278,-3.7378,-3.7381,-3.7473,-3.752,-3.7504,-3.7554,-3.7584,-3.7596,-3.7638,-3.7652,-3.77,-3.767,-3.7686,-3.7726,-3.7741,-3.7797,-3.7734,-3.7794,-3.7796,-3.7785,-3.7907,-3.7924,-3.8018,-3.7868,-3.7871,-3.7872,0,-3.7404,-3.7443,-3.754,-3.7573,-3.7593,-3.7638,-3.7682,-3.7723,-3.7757,-3.7763,-3.7794,-3.7787,-3.7846,-3.7804,-3.7885,-3.7842,-3.7867,-3.7878,-3.7882,-3.7887,-3.7838,-3.7915,-3.8048,-3.8061,-3.7893,-3.7891,-3.789,0,-3.7481,-3.7558,-3.7626,-3.7645,-3.7686,-3.7718,-3.7736,-3.7768,-3.7797,-3.7836,-3.7854,-3.79,-3.7925,-3.796,-3.7966,-3.7935,-3.8048,-3.8005,-3.8054,-3.8054,-3.8077,-3.8076,-3.8215,-3.8095,-3.8095,-3.8095,-3.8095,0,-3.7589,-3.7648,-3.7661,-3.7703,-3.777,-3.7772,-3.7838,-3.7854,-3.7883,-3.7927,-3.7917,-3.7959,-3.7965,-3.8009,-3.8014,-3.808,-3.8092,-3.8098,-3.8098,-3.8098,-3.8098,-3.8114,-3.8107,-3.8099,-3.8098,-3.8097,-3.8096,0,-3.7686,-3.7697,-3.777,-3.7803,-3.7812,-3.786,-3.7888,-3.7928,-3.7939,-3.7996,-3.801,-3.8027,-3.8079,-3.8088,-3.8149,-3.8152,-3.8231,-3.8226,-3.822,-3.8219,-3.8267,-3.8262,-3.8421,-3.8442,-3.8309,-3.831,-3.8311,0,-3.7753,-3.7799,-3.7837,-3.7866,-3.7886,-3.7933,-3.7962,-3.7967,-3.7998,-3.8041,-3.8076,-3.8126,-3.8166,-3.8249,-3.8267,-3.8313,-3.8308,-3.8361,-3.8315,-3.8314,-3.8308,-3.8305,-3.8309,-3.8369,-3.8371,-3.8372,-3.8373,0,-3.7871,-3.7875,-3.7917,-3.7963,-3.7998,-3.8034,-3.8068,-3.8093,-3.8102,-3.8138,-3.819,-3.8221,-3.8283,-3.8333,-3.8379,-3.8398,-3.8387,-3.8387,-3.8401,-3.8401,-3.8395,-3.8398,-3.8243,-3.8383,-3.8382,-3.8382,-3.8381,-3.8381,-3.7955,-3.7995,-3.8028,-3.8076,-3.8102,-3.8135,-3.8174,-3.819,-3.8234,-3.8284,-3.8285,-3.8342,-3.8375,-3.8436,-3.8459,-3.8504,-3.8487,-3.8507,-3.8511,-3.8516,-3.852,-3.8389,-3.8512,-3.8512,-3.8512,-3.8511,-3.8511,0,-3.8073,-3.8093,-3.8138,-3.8185,-3.8223,-3.821,-3.8247,-3.828,-3.833,-3.8362,-3.8402,-3.8463,-3.8511,-3.8534,-3.8582,-3.8613,-3.8609,-3.8626,-3.8623,-3.8627,-3.8533,-3.8516,-3.8628,-3.8628,-3.8628,-3.8628,-3.8628,-3.8628,-3.8138,-3.8205,-3.8212,-3.8292,-3.8312,-3.8368,-3.839,-3.842,-3.8445,-3.8513,-3.8553,-3.8568,-3.8596,-3.8646,-3.869,-3.8696,-3.8713,-3.8732,-3.8735,-3.8646,-3.8634,-3.8623,-3.8607,-3.8736,-3.8736,-3.8826,-3.8827,-3.8827]},{"header":{"parameterUnit":"m.s-1","parameterCategory":1,"la1":30.2991,"la2":30.254,"lo1":-89.0895,"lo2":-89.0444,"dy":0.0017,"dx":0.0017,"nx":28,"ny":28,"refTime":"2024-04-15T09:00:00:Z","depth":0,"parameterNumber":3,"parameterNumberName":"V-component_of_WINDS"},"data":[0,0,0,0,0,0,0,0,0,0,0,0,0,0,0,0,0,0,0,0,0,0,0,0,0,0,0,0,0,0,0,0,0,0,0,0,0,0,0,0,0,0,0,0,0,0,0,0,0,0,0,0,0,0,0,0,0,0,3.1034,3.1035,0,3.1097,3.1097,3.1098,3.1091,3.109,3.1089,3.1088,3.1148,3.115,3.1153,0,0,0,0,0,0,0,0,0,0,0,0,0,3.0906,3.0908,3.1034,3.1035,3.1036,3.1096,3.1097,3.1098,3.1091,3.109,3.1089,3.1088,3.1147,3.115,3.1153,0,0,0,0,0,0,0,0,0,0,0,0,0,3.0964,3.0909,3.1034,3.104,3.1041,3.1096,3.1097,3.1098,3.1091,3.109,3.1088,3.1087,3.1146,3.115,3.1153,3.1206,0,0,3.1165,3.1166,0,0,0,0,0,0,0,0,3.0961,3.0969,3.1038,3.104,3.1041,3.1085,3.1074,3.1134,3.1092,3.1072,3.1088,3.1086,3.1128,3.1133,3.1147,3.1208,3.1211,3.1165,3.1167,3.1169,3.117,0,0,0,0,0,0,0,3.0957,3.0966,3.1059,3.1039,3.1041,3.1038,3.1045,3.1085,3.1107,3.1074,3.1073,3.1081,3.1128,3.1144,3.1149,3.1212,3.1165,3.1168,3.1171,3.1172,3.1319,3.1321,0,0,0,0,0,0,3.0952,3.0963,3.1057,3.1061,3.0997,3.1042,3.1049,3.1072,3.1107,3.1111,3.1082,3.1081,3.1138,3.1144,3.1151,3.1215,3.1169,3.1172,3.1174,3.1317,3.1319,3.1321,0,0,0,0,0,0,3.0949,3.096,3.1054,3.1012,3.1023,3.1045,3.1071,3.1074,3.109,3.1113,3.1117,3.1095,3.1137,3.1146,3.1192,3.1217,3.1174,3.1177,3.1315,3.1318,3.132,3.1343,0,0,0,0,0,0,3.0946,3.0959,3.098,3.1012,3.1026,3.1096,3.1073,3.1076,3.1097,3.1095,3.1126,3.1129,3.1137,3.1187,3.1196,3.1221,3.118,3.1313,3.1317,3.132,3.134,3.1346,3.1351,0,0,0,0,0,3.0941,3.0983,3.0982,3.0993,3.1053,3.1097,3.1105,3.1114,3.1099,3.112,3.1135,3.1129,3.1213,3.1192,3.1202,3.1229,3.1312,3.1316,3.1319,3.1338,3.1345,3.1351,0,0,0,0,0,0,3.0952,3.0987,3.0986,3.104,3.1066,3.1096,3.1123,3.1121,3.115,3.1147,3.1156,3.1163,3.121,3.1224,3.12,3.1281,3.126,3.1266,3.127,3.1277,3.1283,3.1278,3.1183,0,0,0,0,0,3.0961,3.0996,3.1024,3.1069,3.1082,3.11,3.112,3.1125,3.1151,3.1162,3.118,3.1205,3.1237,3.1258,3.1289,3.1342,3.1349,3.1365,3.1371,3.1375,3.138,3.1409,3.1417,3.1334,3.1334,3.1333,0,0,3.0979,3.1003,3.1024,3.1072,3.1093,3.1127,3.1109,3.1147,3.1172,3.1167,3.1213,3.1227,3.1255,3.1306,3.1329,3.1319,3.1405,3.138,3.1383,3.1386,3.1414,3.1422,3.1429,3.1336,3.1336,3.1335,0,0,3.1031,3.1052,3.1092,3.1114,3.1146,3.1158,3.1167,3.1198,3.1208,3.1255,3.1252,3.1281,3.1336,3.1357,3.1374,3.1435,3.143,3.1444,3.1472,3.15,3.1507,3.1513,3.1534,3.1542,3.1449,3.1449,3.1449,0,3.1049,3.1103,3.1113,3.1151,3.1172,3.1171,3.1211,3.123,3.127,3.1284,3.1273,3.1343,3.1361,3.1417,3.1432,3.1446,3.1457,3.144,3.1506,3.1512,3.1517,3.1538,3.1546,3.1451,3.145,3.145,3.145,0,3.1124,3.1161,3.1189,3.1229,3.1253,3.1292,3.1308,3.133,3.1333,3.1346,3.1393,3.1416,3.1451,3.1465,3.1467,3.1521,3.1514,3.1504,3.1483,3.1527,3.1546,3.1554,3.1453,3.1452,3.1452,3.1451,0,0,3.1183,3.123,3.124,3.1258,3.1294,3.1322,3.1361,3.1397,3.1417,3.1444,3.1476,3.1523,3.1515,3.1535,3.1539,3.1564,3.1611,3.1552,3.1552,3.1562,3.1671,3.1678,3.1687,3.1608,3.161,3.1611,3.1668,0,3.1238,3.1308,3.1319,3.138,3.1414,3.1413,3.1447,3.1472,3.1485,3.1514,3.1528,3.1562,3.1548,3.156,3.1585,3.16,3.1633,3.1596,3.1637,3.1638,3.163,3.1697,3.1704,3.1758,3.1676,3.1677,3.1678,0,3.1311,3.1343,3.1408,3.1439,3.1454,3.1484,3.1519,3.1548,3.1575,3.1583,3.1606,3.1608,3.1647,3.1624,3.1678,3.1653,3.167,3.168,3.1682,3.1686,3.1661,3.1702,3.1775,3.1783,3.169,3.1689,3.1688,0,3.1348,3.1406,3.1453,3.1469,3.1507,3.1528,3.1545,3.1571,3.1593,3.1622,3.1636,3.1669,3.1687,3.1712,3.1723,3.1706,3.1776,3.1754,3.1782,3.1782,3.1797,3.1796,3.1873,3.1808,3.1808,3.1808,3.1808,0,3.1408,3.1448,3.147,3.1499,3.1543,3.1555,3.1598,3.1614,3.1638,3.1668,3.1669,3.1698,3.171,3.174,3.1748,3.1791,3.1799,3.1806,3.1808,3.1806,3.1805,3.1817,3.1814,3.181,3.181,3.1809,3.1809,0,3.1457,3.1474,3.1525,3.1557,3.1566,3.1597,3.1624,3.1651,3.1664,3.1703,3.1713,3.1733,3.1769,3.1782,3.1825,3.183,3.188,3.1879,3.1871,3.1872,3.1899,3.1897,3.1987,3.1999,3.1927,3.1927,3.1928,0,3.1494,3.1525,3.1561,3.1583,3.1601,3.1635,3.1657,3.167,3.1693,3.1727,3.175,3.1786,3.1816,3.1872,3.189,3.1923,3.1922,3.1952,3.1927,3.1924,3.1923,3.1921,3.1924,3.1956,3.1957,3.1957,3.1958,0,3.1559,3.1566,3.1599,3.1635,3.1662,3.169,3.1718,3.1735,3.1751,3.1777,3.1814,3.1837,3.1882,3.1917,3.1951,3.1967,3.1965,3.1966,3.1974,3.1972,3.1967,3.197,3.1884,3.1963,3.1963,3.1962,3.1962,3.1962,3.1603,3.1631,3.1661,3.1697,3.172,3.1746,3.1773,3.179,3.1822,3.1861,3.1866,3.1906,3.1933,3.1978,3.1996,3.2026,3.2018,3.203,3.2033,3.2036,3.2038,3.1962,3.2032,3.2032,3.2032,3.2032,3.2032,0,3.1668,3.1687,3.1721,3.1761,3.1789,3.1787,3.1817,3.1841,3.1877,3.1903,3.1932,3.1975,3.201,3.203,3.2065,3.2085,3.2085,3.2094,3.2092,3.2096,3.2043,3.2033,3.2093,3.2093,3.2093,3.2093,3.2093,3.2093,3.1705,3.1752,3.1762,3.182,3.1839,3.1879,3.1897,3.1921,3.1942,3.199,3.2019,3.2033,3.2057,3.2093,3.2125,3.213,3.2142,3.2152,3.2156,3.2106,3.21,3.2094,3.2084,3.2154,3.2154,3.2206,3.2206,3.2207]}]]